STARLINK-4131 (53246 NORAD) Tracking and Keplerian Element Data

This shows tracking and keplerian element data for the satellite.

Feedback or suggestion? Click here.




ElementValue
Catalog53246
NameSTARLINK-4131
Epoch Orbit130
Epoch Day269.91667824
Epoch Year2022
RAAN99.4584
Inclination53.2148
Eccentricity0.0001949
Argument of Perigee47.968
Mean Anonmoly163.8113
Mean Motion15.08816106
Decay Rate0.00036113
L11 53246U 22086E 22269.91667824 .00036113 00000+0 22770-2 0 9995
L22 53246 53.2148 99.4584 0001949 47.9680 163.8113 15.08816106 1304

Live tracking and technical data element details for STARLINK-4131 (NORAD 53246). STARLINK-4131 can be tracked NOW for your location showing map with azimuth and elevation plus other details from your city location.

Track the satellite on the map from your city or location and see movement details for azimuth, elevation, latitude, longitude, range, height, and movement on the map or in text.







IsCatalogInMostPopularTable: catalog: 53246, numindb: 6
Update: records affected: 1



GetName: 53246 STARLINK-4131

Hit Count: updated at: Fri, 30 Sep 2022 03:29:26 GMT